Location: Mound City (historical)
(34.0564°N, 117.2656°W)
Time: 01:28:24
(UTC+00:00)

Okean 1-7 Rocket - Pass Details

Date: 08 September 2024
Orbit: 612 x 646 km, 82.5° (Epoch: 03 October)

Event Time Altitude Azimuth Distance (km) Brightness Sun altitude
Rises 12:23:32 0° 348° (NNW) 2,934 7.1 -13.9°
Reaches altitude 10° 12:25:49 10° 344° (NNW) 2,016 6.2 -13.4°
Maximum altitude 12:30:11 55° 267° (W) 754 3.6 -12.6°
Drops below altitude 10° 12:34:28 10° 189° (S) 1,981 5.9 -11.7°
Sets 12:36:42 0° 185° (S) 2,878 6.8 -11.2°
